Location: Madden
(51.3728°N, 114.3297°W)
Time: 12:11:19
(UTC+00:00)

Envisat - Pass Details

Date: 24 April 2024
Orbit: 762 x 764 km, 98.3° (Epoch: 26 May)

Event Time Altitude Azimuth Distance (km) Brightness Sun altitude
Rises 11:24:51 0° 13° (NNE) 3,242 7.0 -8.7°
Reaches altitude 10° 11:27:10 10° 12° (NNE) 2,311 6.2 -8.4°
Maximum altitude 11:32:15 74° 288° (WNW) 797 3.0 -7.7°
Drops below altitude 10° 11:37:17 10° 204° (SSW) 2,294 5.0 -7.0°
Enters shadow 11:39:09 - 203° (SSW) 3,044 5.6 -6.8°
